Location: Ammerssluis
(51.9167°N, 4.8167°E)
Time: 14:38:02
(UTC+00:00)

Daily predictions for brighter satellites

Satellite Brightness Start Highest point End
(mag) Time Altitude Azimuth Time Altitude Azimuth Time Altitude Azimuth
NOSS 3-4 (A) 4.0 18:43:51 10° NW 18:50:34 63° NE 18:58:00 10° ESE
NOSS 3-4 (C) 4.0 18:43:57 10° NW 18:50:40 62° NE 18:58:06 10° ESE
Cosmos 1656 Rocket 3.9 18:47:02 10° NNW 18:52:40 60° NE 18:58:12 10° SE
ADEOS Rocket 3.4 18:46:19 10° NNE 18:52:57 75° WNW 18:58:53 10° SSW
CZ-2C R/B 3.8 18:52:44 10° NE 18:56:30 20° E 19:00:16 10° SE
STARLINK-1241 3.8 18:52:51 10° W 18:57:01 77° N 19:01:10 10° E
SL-16 R/B 2.8 18:51:57 10° SW 18:57:35 65° NW 19:03:15 10° NNE
STARLINK-1228 2.8 18:54:58 10° W 18:57:53 72° N 19:00:48 10° E
Resurs 1-3 4.4 18:57:00 10° SE 19:00:58 35° ENE 19:04:58 10° N
STARLINK-1239 3.8 18:57:50 10° W 19:01:59 77° N 19:06:09 10° E
NOSS 3-3 (A) 4.1 18:56:30 10° SSW 19:02:12 52° ESE 19:08:40 10° NE
NOSS 3-3 (C) 4.1 18:56:36 10° SSW 19:02:19 52° ESE 19:08:46 10° NE
Cosmos 2251 Rocket 3.6 18:58:01 10° S 19:03:18 63° ESE 19:08:38 10° NNE
Cosmos 1726 2.6 18:59:58 10° SSE 19:03:30 40° E 19:07:01 10° NNE
MetOp-A 4.5 18:58:35 10° SE 19:03:41 48° ENE 19:08:50 10° N
Cosmos 2184 Rocket 4.1 18:58:33 10° N 19:04:51 65° ENE 19:11:02 10° SSE
ARGOS 3.2 19:00:16 10° SSE 19:05:39 79° ENE 19:11:04 10° NNW
ISS -1.2 19:03:51 10° WSW 19:05:58 16° SW 19:08:04 10° S
STARLINK-1240 3.8 19:02:50 10° W 19:06:59 76° N 19:11:09 10° E
MONITOR-E 3.7 19:04:41 10° SSE 19:07:19 83° ENE 19:09:59 10° NNW
STARLINK-1233 3.0 19:04:53 10° W 19:08:02 72° N 19:11:10 10° E
STARLINK-1212 3.0 19:05:20 10° W 19:08:28 72° N 19:11:36 10° E
STARLINK-1105 3.0 19:05:47 10° W 19:08:55 72° N 19:12:03 10° E
SJ-6B 2.9 19:04:58 10° SSE 19:09:04 71° ENE 19:13:13 10° N
STARLINK-1206 3.0 19:06:16 10° W 19:09:24 72° N 19:12:28 10° E
STARLINK-1247 3.0 19:06:44 10° W 19:09:51 72° N 19:12:54 11° E
STARLINK-1227 3.0 19:07:08 10° W 19:10:16 72° N 19:13:20 11° E
STARLINK-1218 3.0 19:07:38 10° W 19:10:46 72° N 19:13:47 11° E
STARLINK-1226 3.0 19:08:04 10° W 19:11:11 72° N 19:14:12 11° E
STARLINK-1254 3.0 19:08:29 10° W 19:11:38 73° N 19:14:38 11° E
STARLINK-1216 3.8 19:07:49 10° W 19:11:59 75° N 19:16:09 10° E
STARLINK-1215 3.0 19:08:59 10° W 19:12:07 73° N 19:15:04 11° E
Meteor 2-10 4.3 19:07:05 10° S 19:12:25 57° E 19:17:58 10° NNE
STARLINK-67 2.3 19:09:58 10° WNW 19:12:32 89° N 19:14:43 13° ESE
STARLINK-1231 3.0 19:09:26 10° W 19:12:33 73° N 19:15:30 11° E
STARLINK-1232 3.0 19:10:20 10° W 19:13:27 73° N 19:16:22 12° E
STARLINK-1217 3.0 19:10:47 10° W 19:13:55 73° N 19:16:48 12° E
USA 186 2.0 19:10:44 10° S 19:14:05 77° W 19:17:17 10° NNW
STARLINK-1208 3.0 19:11:11 10° W 19:14:20 73° N 19:17:15 12° E
STARLINK-1229 3.0 19:11:41 10° W 19:14:48 73° N 19:17:39 12° E
STARLINK-1271 3.0 19:12:08 10° W 19:15:15 73° N 19:18:07 12° E
STARLINK-1234 2.8 19:12:15 10° WNW 19:15:19 78° N 19:17:59 13° E
Cosmos 1980 Rocket 4.4 19:12:56 10° N 19:15:19 13° NNE 19:17:41 10° NE
STARLINK-1270 3.0 19:12:36 10° W 19:15:44 73° N 19:18:33 12° E
STARLINK-1154 3.0 19:13:02 10° W 19:16:09 74° N 19:18:57 12° E
STARLINK-1237 3.8 19:12:48 10° W 19:16:57 75° N 19:21:07 10° E
STARLINK-1197 3.0 19:13:56 10° W 19:17:04 74° N 19:19:50 13° E
STARLINK-1189 3.0 19:14:23 10° W 19:17:31 74° N 19:20:16 13° E
IRIDIUM 104 4.3 19:12:42 10° N 19:17:58 86° E 19:23:11 10° S
STARLINK-1198 3.0 19:14:50 10° W 19:17:58 74° N 19:20:42 13° E
STARLINK-1209 2.8 19:15:08 10° WNW 19:18:08 80° N 19:20:38 14° E
STARLINK-1188 2.9 19:15:17 10° W 19:18:25 74° N 19:21:08 13° E
STARLINK-1235 2.9 19:15:56 10° WNW 19:19:06 79° NNE 19:21:46 14° E
STARLINK-1187 3.0 19:16:21 10° WNW 19:19:31 77° N 19:22:12 14° E
Cosmos 1603 3.7 19:14:37 10° SSW 19:20:11 67° ESE 19:25:46 10° NE
STARLINK-1199 3.0 19:17:14 10° W 19:20:23 75° N 19:23:03 14° E
STARLINK-1191 3.0 19:17:41 10° W 19:20:51 75° N 19:23:29 14° E
FREGAT/IRIS 3.1 19:18:17 10° S 19:20:56 53° W 19:23:38 10° NNW
STARLINK-1210 3.0 19:18:09 10° W 19:21:17 75° N 19:23:55 14° E
STARLINK-1221 3.0 19:18:35 10° WNW 19:21:44 75° N 19:24:21 14° E
MOS 1 Rocket 4.3 19:16:54 10° NNE 19:21:46 34° E 19:26:41 10° SSE
Cosmos 2058 Rocket 4.1 19:18:05 10° SE 19:21:53 27° E 19:25:42 10° NNE
STARLINK-1202 3.8 19:17:46 10° W 19:21:56 75° N 19:25:56 11° E
STARLINK-1219 3.0 19:19:02 10° WNW 19:22:11 76° N 19:24:47 14° E
STARLINK-1222 2.9 19:19:30 10° WNW 19:22:39 76° N 19:25:13 14° E
Ariane Rocket 3.7 19:17:55 10° S 19:22:55 57° WSW 19:27:55 10° NNW
STARLINK-1211 2.9 19:19:57 10° WNW 19:23:06 76° N 19:25:39 15° E
ATLAS 2AS CENTAUR R/B 2.9 19:15:20 10° NW 19:23:08 85° NE 19:29:59 11° SE
Cosmos 1758 4.4 19:19:31 10° SSW 19:23:30 50° WNW 19:27:31 10° N
STARLINK-1214 2.9 19:20:24 10° WNW 19:23:33 76° N 19:26:05 15° E
STARLINK-1245 2.9 19:20:53 10° WNW 19:24:00 76° N 19:26:30 15° E
USA 234 4.2 19:18:59 10° ENE 19:24:01 23° SE 19:29:02 10° S
STARLINK-1238 2.9 19:21:17 10° WNW 19:24:27 76° N 19:26:57 15° E
STARLINK-1205 2.9 19:22:14 10° WNW 19:25:22 77° N 19:27:49 15° E
Resurs 01 Rocket 2.1 19:21:42 10° SE 19:25:48 42° ENE 19:29:59 10° N
STARLINK-1204 2.9 19:22:41 10° WNW 19:25:49 77° N 19:28:14 16° E
STARLINK-1203 3.8 19:21:57 10° W 19:26:10 75° N 19:30:01 12° E
Cosmos 2154 Rocket 4.1 19:20:45 10° N 19:27:06 63° ENE 19:33:21 10° SSE
IRIDIUM 114 4.5 19:21:52 10° N 19:27:07 82° W 19:32:20 10° S
Meteor 1-16 Rocket 4.1 19:24:27 10° S 19:29:48 66° E 19:35:21 10° NNE
SeaSat 1 3.3 19:25:03 10° NNE 19:29:53 54° NW 19:34:40 10° SW
STARLINK-1246 3.7 19:27:45 10° W 19:31:55 75° N 19:35:30 14° E
SL-4 R/B 2.7 19:29:31 10° SSW 19:32:18 24° SSE 19:33:43 18° ESE
Nadezhda 1 Rocket 4.2 19:26:37 10° SSE 19:32:49 55° E 19:38:59 10° NNE
Cosmos 1140 Rocket 4.4 19:28:35 10° SSE 19:32:49 26° E 19:37:04 10° NE
Aureole 3 4.5 19:28:38 10° SSW 19:33:27 71° WNW 19:39:40 10° N
STARLINK-1201 3.0 19:30:51 10° WNW 19:34:07 79° N 19:36:24 18° E
Cosmos 1726 Rocket 3.7 19:30:51 10° S 19:35:06 51° E 19:39:27 10° NNE
Spot 2 Rocket 4.3 19:31:33 15° ESE 19:35:12 34° ENE 19:39:47 10° N
Cosmos 1340 Rocket 3.6 19:33:14 10° SSE 19:36:52 32° E 19:40:29 10° NNE
STARLINK-1224 3.7 19:32:44 10° W 19:36:54 75° N 19:40:17 15° E
ATLAS 5 CENTAUR R/B 2.7 19:35:12 10° SSE 19:38:19 20° ESE 19:41:40 10° ENE
Cosmos 1825 Rocket 3.8 19:34:11 10° NNW 19:38:35 72° W 19:42:56 10° S
Cosmos 1328 3.8 19:34:38 10° N 19:38:41 86° E 19:42:41 10° S
STARLINK-1225 3.7 19:37:44 10° W 19:41:54 76° N 19:45:05 17° E
Cosmos 1703 3.3 19:40:06 10° NNW 19:44:05 81° W 19:48:02 10° S
Meteor 2-17 Rocket 4.4 19:38:04 10° N 19:44:15 79° E 19:50:25 10° SSE
STARLINK-1230 3.7 19:42:43 10° W 19:46:53 76° N 19:49:52 18° E
Cosmos 1943 Rocket 4.2 19:43:54 10° NW 19:48:23 26° WSW 19:52:52 10° SSW
Cosmos 614 Rocket 4.1 19:44:32 10° S 19:49:36 54° ESE 19:54:42 10° NNE
Cosmos 2369 Rocket 3.8 19:45:27 10° NW 19:50:27 32° WSW 19:55:23 10° SSW
Abrixas rocket 2.5 19:48:35 10° WSW 19:51:25 41° S 19:52:19 30° SE
Cosmos 1300 3.8 19:50:48 23° ESE 19:51:41 26° E 19:54:54 10° NNE
STARLINK-1243 3.7 19:47:40 10° W 19:51:51 77° N 19:54:37 20° E
SPOT 3 Rocket 3.8 19:47:09 10° S 19:52:21 72° WSW 19:57:36 10° NNW
COSMOS 2455 2.9 19:46:23 10° NW 19:52:26 69° NE 19:56:39 20° SE
SL-24 R/B 3.8 19:48:20 10° NNE 19:52:41 80° ESE 19:56:33 10° S
CZ-2C R/B 3.7 19:49:44 10° NNE 19:54:31 83° ESE 19:59:11 10° SSW
Cosmos 921 Rocket 3.0 19:50:34 10° NNW 19:54:45 62° ENE 19:57:12 23° SE
STARLINK-1236 3.7 19:52:41 10° W 19:56:52 78° N 19:59:25 22° E
Cosmos 1953 Rocket 4.0 19:54:30 10° NNW 19:58:58 66° W 20:03:24 10° S
Cosmos 1953 3.9 19:55:33 10° SW 19:59:16 38° WNW 20:03:02 10° N
Cosmos 407 Rocket 3.5 19:55:56 10° S 20:00:57 56° ESE 20:05:59 10° NNE
Cosmos 2228 3.1 19:57:09 10° SSW 20:01:27 78° W 20:05:50 10° N
Cosmos 1606 Rocket 3.9 19:59:40 10° SSW 20:04:05 71° WNW 20:08:34 10° N
Cosmos 1908 3.3 20:00:45 10° SSW 20:04:37 82° WNW 20:08:32 10° N
STARLINK-1269 3.6 20:02:40 10° W 20:06:51 81° N 20:09:00 27° E
Cosmos 1818 3.5 20:03:23 10° SW 20:08:50 84° SE 20:14:19 10° NE
ATLAS CENTAUR R/B 3.5 20:06:06 10° NNW 20:08:57 18° NNE 20:11:25 11° ENE
ERBS 3.0 20:05:51 10° WNW 20:09:08 46° NNE 20:10:29 29° ENE
ERS-1 Rocket 3.8 20:07:39 24° ESE 20:09:45 34° ENE 20:14:16 10° N
STARLINK-1200 3.6 20:07:39 10° WNW 20:11:50 82° NNE 20:13:47 30° E
Landsat 7 4.2 20:11:38 28° SE 20:13:44 48° ENE 20:18:19 10° N
Cosmos 220 Rocket 4.5 20:12:11 10° NNW 20:16:21 45° ENE 20:17:46 33° ESE
STARLINK-1192 3.6 20:12:37 10° WNW 20:16:48 84° NNE 20:18:33 34° E
SPOT 1/Viking Rocket 3.9 20:14:31 28° SE 20:16:56 48° ENE 20:21:58 10° N
Cosmos 1461 3.3 20:13:04 10° NW 20:17:32 64° SW 20:19:51 28° SSE
Cosmos 1943 3.6 20:12:43 10° SW 20:18:21 65° NW 20:24:03 10° NNE
MetOp-B 4.1 20:15:08 22° SSE 20:18:38 80° ENE 20:24:02 10° NNW
STARLINK-1244 3.5 20:17:37 10° WNW 20:21:47 86° NNE 20:23:21 37° E
Cosmos 1954 Rocket 4.2 20:21:02 21° SSE 20:24:09 45° ESE 20:29:06 10° NE
SAR-Lupe-2 3.5 20:22:17 10° NNE 20:25:51 62° ESE 20:26:39 46° SSE
STARLINK-1138 3.5 20:22:34 10° WNW 20:26:45 88° NNE 20:28:06 42° E
H-2A R/B 4.4 20:25:56 10° SW 20:29:47 21° W 20:33:34 10° NW
CZ-4C R/B 3.7 20:25:29 10° NW 20:31:34 39° NNE 20:37:07 16° E
STARLINK-1143 3.5 20:27:32 10° WNW 20:31:43 90° ENE 20:32:52 46° ESE
Cosmos 2151 4.2 20:28:32 10° N 20:32:05 25° ENE 20:32:13 25° ENE
Cosmos 1023 Rocket 4.3 20:27:37 10° SSW 20:32:48 76° ESE 20:37:56 10° NNE
STARLINK-1228 3.5 20:30:01 10° W 20:32:28 41° SW 20:32:28 41° SW
Cosmos 1697 Rocket 3.8 20:28:00 10° NNW 20:33:03 32° NE 20:35:27 23° E
Cosmos 1076 Rocket 3.6 20:29:57 10° N 20:34:11 56° ENE 20:35:03 47° ESE
STARLINK-1241 3.5 20:32:33 10° WNW 20:36:44 88° S 20:37:41 52° ESE
CZ-2C R/B 2.8 20:32:11 10° NNE 20:37:22 71° WNW 20:42:31 10° SSW
SPOT 5 3.1 20:36:47 39° E 20:37:30 42° ENE 20:41:35 10° N
STARLINK-1239 3.5 20:37:31 10° WNW 20:41:42 85° SSW 20:42:27 58° ESE
Cosmos 2341 Rocket 4.2 20:35:32 10° NNW 20:41:54 72° W 20:46:40 19° S
Iridium 2 3.5 20:42:00 65° SE 20:42:18 69° E 20:46:08 10° N
Cosmos 2058 2.8 20:39:38 10° N 20:43:45 68° ENE 20:44:18 59° SE
STARLINK-1233 3.6 20:40:45 10° WNW 20:43:20 45° WSW 20:43:20 45° WSW
STARLINK-1212 3.7 20:41:12 10° WNW 20:43:45 44° WSW 20:43:45 44° WSW
STARLINK-1105 3.7 20:41:38 10° WNW 20:44:12 44° WSW 20:44:12 44° WSW
Aureole 1 Rocket 4.3 20:37:41 10° SSW 20:45:08 73° WNW 20:50:54 10° NNE
STARLINK-1206 3.7 20:42:09 10° WNW 20:44:37 42° WSW 20:44:37 42° WSW
STARLINK-1247 3.8 20:42:36 10° W 20:45:03 42° WSW 20:45:03 42° WSW
STARLINK-1227 3.8 20:43:00 10° W 20:45:29 42° WSW 20:45:29 42° WSW
SL-16 R/B 4.5 20:43:00 10° NNW 20:46:13 15° NNE 20:49:26 10° ENE
STARLINK-1218 3.8 20:43:30 10° W 20:45:55 41° WSW 20:45:55 41° WSW
STARLINK-1240 3.5 20:42:31 10° WNW 20:46:41 83° SSW 20:47:15 65° ESE
STARLINK-1226 3.8 20:43:56 10° W 20:46:21 41° WSW 20:46:21 41° WSW
STARLINK-1254 3.8 20:44:21 10° W 20:46:47 41° WSW 20:46:47 41° WSW
STARLINK-1215 3.9 20:44:51 10° W 20:47:13 39° WSW 20:47:13 39° WSW
Cosmos 1763 Rocket 3.7 20:43:07 10° NNW 20:48:17 58° ENE 20:49:35 44° ESE
STARLINK-1231 3.9 20:45:18 10° W 20:47:39 39° WSW 20:47:39 39° WSW
STARLINK-1232 4.0 20:46:12 10° W 20:48:31 38° WSW 20:48:31 38° WSW
STARLINK-1217 4.0 20:46:39 10° W 20:48:57 38° WSW 20:48:57 38° WSW
STARLINK-1208 4.0 20:47:04 10° W 20:49:24 38° WSW 20:49:24 38° WSW
STARLINK-1229 4.0 20:47:33 10° W 20:49:48 36° WSW 20:49:48 36° WSW
STARLINK-1234 4.4 20:47:52 10° W 20:49:52 29° WSW 20:49:52 29° WSW
STARLINK-1271 4.1 20:48:00 10° W 20:50:15 36° WSW 20:50:15 36° WSW
STARLINK-1270 4.1 20:48:28 10° W 20:50:42 36° WSW 20:50:42 36° WSW
STARLINK-1216 3.4 20:47:30 10° WNW 20:51:40 80° SSW 20:52:03 71° SE
STARLINK-1154 4.1 20:48:54 10° W 20:51:06 35° WSW 20:51:06 35° WSW
Cosmos 1408 3.6 20:49:18 10° N 20:52:05 34° NE 20:52:05 34° NE
STARLINK-1197 4.2 20:49:49 10° W 20:51:59 34° WSW 20:51:59 34° WSW
STARLINK-1189 4.2 20:50:16 10° W 20:52:25 34° WSW 20:52:25 34° WSW
STARLINK-1198 4.2 20:50:43 10° W 20:52:51 34° WSW 20:52:51 34° WSW
STARLINK-1188 4.2 20:51:10 10° W 20:53:17 33° WSW 20:53:17 33° WSW
USA 32 4.3 20:49:40 10° N 20:54:47 51° ENE 20:55:38 46° ESE
STARLINK-1235 4.4 20:51:51 10° W 20:53:55 30° WSW 20:53:55 30° WSW
STARLINK-1187 4.3 20:52:15 10° W 20:54:21 31° WSW 20:54:21 31° WSW
Terra 2.1 20:55:02 45° E 20:55:40 49° ENE 21:00:16 10° N
Cosmos-2242 4.4 20:57:02 26° ENE 20:57:02 26° ENE 20:59:39 10° NNE
STARLINK-1199 4.3 20:53:06 10° W 20:55:12 32° WSW 20:55:12 32° WSW
Cosmos 2322 Rocket 4.5 20:52:58 10° NNW 20:56:09 15° NNE 20:59:18 10° ENE
RESURS DK-1 3.2 20:52:14 10° NNW 20:56:09 38° NE 20:56:27 38° ENE
STARLINK-1191 4.3 20:53:34 10° W 20:55:38 32° WSW 20:55:38 32° WSW
STARLINK-1237 3.4 20:52:28 10° WNW 20:56:37 77° SSW 20:56:48 75° SSE
STARLINK-1210 4.4 20:54:01 10° W 20:56:04 31° WSW 20:56:04 31° WSW
Cosmos 1174 3.9 20:53:25 10° NW 20:57:21 83° NE 20:57:56 66° SE
STARLINK-1221 4.4 20:54:28 10° W 20:56:30 31° WSW 20:56:30 31° WSW
STARLINK-1219 4.4 20:54:55 10° W 20:56:56 31° WSW 20:56:56 31° WSW
STARLINK-1222 4.4 20:55:23 10° W 20:57:22 30° WSW 20:57:22 30° WSW
STARLINK-1211 4.4 20:55:50 10° W 20:57:48 30° WSW 20:57:48 30° WSW
STARLINK-1214 4.5 20:56:17 10° W 20:58:14 30° WSW 20:58:14 30° WSW
Cosmos 2218 Rocket 4.0 20:53:13 10° NNW 20:59:26 82° W 21:02:26 33° S
Cosmos 2058 Rocket 4.4 20:55:29 10° SW 20:59:44 40° WNW 21:04:01 10° N
Cosmos 192 4.3 20:55:01 10° NNW 21:00:00 87° WSW 21:01:06 55° SSE
Cosmos 1980 Rocket 3.4 20:56:23 10° NNW 21:01:17 30° NE 21:03:11 24° ENE
STARLINK-1202 3.5 20:57:26 10° WNW 21:01:35 74° SSW 21:01:35 74° SSW
Cosmos 1892 2.6 20:58:02 10° N 21:01:53 83° NE 21:01:53 83° NE
Cosmos 1455 3.9 21:03:40 22° NE 21:03:40 22° NE 21:05:26 10° NNE
Resurs 01 Rocket 3.5 20:59:15 13° SSW 21:02:27 27° W 21:06:12 10° NW
Cosmos 540 Rocket 4.1 20:58:38 10° NNW 21:03:34 42° NE 21:04:25 39° E
STARLINK-1203 3.7 21:01:50 10° WNW 21:05:52 67° SW 21:05:52 67° SW
USA 234 3.1 21:01:23 10° ENE 21:07:54 66° SE 21:14:24 10° SW
Okean 3 Rocket 3.9 21:04:07 10° N 21:08:14 50° ENE 21:08:14 50° ENE
Cosmos 1656 3.7 21:03:37 10° NNW 21:09:22 73° ENE 21:10:37 54° ESE
Iridium 4 Rocket 3.0 21:05:55 10° N 21:10:12 73° W 21:10:42 64° SW
CARTOSAT-1 3.4 21:10:07 79° SSE 21:10:23 89° ENE 21:14:45 10° NNW
SL-4 R/B 3.5 21:08:03 10° WSW 21:09:22 21° WSW 21:09:22 21° WSW
STARLINK-1246 3.8 21:07:24 10° WNW 21:11:09 63° WSW 21:11:09 63° WSW
Cosmos 1850 Rocket 4.4 21:13:06 44° E 21:13:06 44° E 21:17:18 10° NE
ATLAS 2AS CENTAUR R/B 4.2 21:07:05 10° NW 21:13:20 29° WSW 21:17:26 17° SSW
Spot 2 Rocket 4.4 21:11:43 27° SSW 21:14:05 44° W 21:18:59 10° NNW
Cosmos 1140 Rocket 4.1 21:09:12 10° SW 21:14:18 56° WNW 21:19:24 10° NNE
STARLINK-1224 4.0 21:12:23 10° WNW 21:15:55 56° WSW 21:15:55 56° WSW
Cosmos 2181 Rocket 4.1 21:12:15 20° SSW 21:16:42 72° WNW 21:22:54 10° N
Cosmos 1825 3.1 21:13:46 10° N 21:16:32 39° NNE 21:16:32 39° NNE
Cosmos 1766 Rocket 3.9 21:15:57 10° N 21:20:00 53° NE 21:20:00 53° NE
STARLINK-1225 4.2 21:17:23 10° WNW 21:20:44 50° WSW 21:20:44 50° WSW
ATLAS 5 CENTAUR R/B 1.8 21:18:01 10° SW 21:22:18 73° NW 21:27:14 10° NE
Cosmos 841 Rocket 3.5 21:18:28 10° NNW 21:23:44 64° ENE 21:24:13 60° E
Cosmos 2278 4.3 21:19:06 10° NNW 21:24:33 45° NE 21:25:34 41° E
STARLINK-1230 4.4 21:22:22 10° WNW 21:25:30 45° WSW 21:25:30 45° WSW
Cosmos 1300 4.4 21:25:42 23° WSW 21:27:15 31° WNW 21:30:43 10° N
Cosmos 1570 Rocket 3.9 21:23:57 10° NNW 21:29:22 82° ENE 21:29:51 73° SE
Cosmos 2082 Rocket 4.2 21:33:29 15° ENE 21:33:29 15° ENE 21:34:48 10° NE
Mayak 0.5 21:28:46 10° NNE 21:30:35 22° NE 21:30:35 22° NE
Cosmos 468 Rocket 4.2 21:28:05 10° NNW 21:33:11 58° WSW 21:33:48 54° SW
Cosmos 1812 Rocket 4.1 21:33:49 49° WSW 21:34:23 54° WNW 21:38:40 10° N
COSMOS 2455 4.2 21:32:51 10° NW 21:37:57 29° WSW 21:39:49 25° SW
ASTEX 1 3.7 21:39:12 57° ENE 21:39:12 57° ENE 21:43:44 10° N
Cosmos 1356 Rocket 4.2 21:43:19 49° NNE 21:43:19 49° NNE 21:46:30 10° NNE
Nadezhda 3 Rocket 3.9 21:43:48 65° SE 21:44:31 71° E 21:50:47 10° NNE
COSMOS 2406 3.5 21:45:30 52° ENE 21:45:30 52° ENE 21:50:12 10° NE
Cosmos 1833 Rocket 3.9 21:47:50 29° ENE 21:47:50 29° ENE 21:50:58 10° NE
ERS-1 Rocket 3.8 21:47:39 39° WSW 21:48:28 42° W 21:53:16 10° NNW
Cosmos 1535 Rocket 4.5 21:42:23 10° N 21:48:29 62° ENE 21:48:58 60° E
ATLAS CENTAUR R/B 2.4 21:44:47 10° NW 21:47:36 40° NNW 21:47:36 40° NNW
Cosmos 1408 Rocket 4.2 21:59:07 10° N 22:02:35 53° N 22:02:35 53° N
Thor Agena Rocket 4.2 21:58:40 10° NNE 22:02:20 43° NE 22:02:20 43° NE
Cosmos 2369 3.6 22:00:08 10° NNW 22:05:45 79° WSW 22:05:45 79° WSW
Cosmos 2208 Rocket 4.2 22:01:19 10° NNW 22:06:09 62° W 22:06:09 62° W
Cosmos 1741 Rocket 4.1 22:07:29 70° W 22:07:44 71° WNW 22:13:05 10° NNE
Cosmos 2151 4.3 22:05:35 10° NNW 22:08:48 35° WNW 22:08:48 35° WNW
Meteor 2-10 Rocket 3.7 22:12:36 65° W 22:12:44 65° WNW 22:18:08 10° N
Cosmos 1821 Rocket 4.3 22:07:18 10° NNW 22:13:34 62° W 22:14:33 55° SW
SPOT 5 4.3 22:16:00 25° W 22:16:00 25° W 22:19:24 10° NW
Cosmos 1697 Rocket 2.8 22:11:50 10° NW 22:17:11 64° W 22:17:11 64° W
CZ-4C R/B 2.8 22:14:02 10° NW 22:21:00 85° NE 22:22:18 65° SE
Cosmos 1934 Rocket 3.9 22:15:48 10° NNW 22:22:07 81° W 22:22:23 79° SW
Meteor 2-3 Rocket 3.8 22:21:10 10° NNW 22:26:44 71° W 22:26:44 71° W
Cosmos 2221 4.2 22:33:50 29° NNE 22:33:50 29° NNE 22:36:07 10° NNE
SL-16 R/B 3.0 22:26:36 10° NNW 22:31:59 40° NE 22:32:21 40° ENE
Cosmos 1605 Rocket 3.9 22:26:31 10° N 22:32:34 83° NE 22:32:34 83° NE
Terra 3.4 22:33:54 26° W 22:33:54 26° W 22:37:40 10° NW
RESURS DK-1 4.5 22:30:26 10° NW 22:32:20 22° WNW 22:32:20 22° WNW
Cosmos 1455 4.5 22:38:33 22° NW 22:38:33 22° NW 22:40:52 10° NNW
Cosmos 2360 Rocket 3.8 22:33:18 10° NNW 22:38:01 26° NE 22:39:34 23° ENE
Cosmos 2322 Rocket 3.1 22:36:31 10° NNW 22:41:51 40° NE 22:42:08 40° NE
Cosmos 1980 Rocket 2.5 22:40:12 10° NW 22:44:56 60° WNW 22:44:56 60° WNW
Cosmos 1339 Rocket 4.5 22:49:26 81° NE 22:49:26 81° NE 22:55:38 10° NNE
ALOS 2 4.0 22:51:07 37° N 22:51:07 37° N 22:53:51 10° N
USA 234 3.5 22:44:30 10° ENE 22:50:59 68° NNW 22:57:29 10° W
ATLAS 5 CENTAUR R/B 3.8 23:03:50 10° WNW 23:07:46 27° NNW 23:12:13 10° NE
Mayak 0.7 23:04:31 10° N 23:07:09 26° NW 23:07:09 26° NW
Cosmos 2082 Rocket 2.6 23:15:17 59° NNE 23:15:17 59° NNE 23:19:55 10° NNE
Cosmos 2344 4.3 23:06:34 10° NW 23:15:55 69° SW 23:18:38 55° S
Cosmos 2061 Rocket 4.4 23:12:14 10° N 23:18:10 54° ENE 23:18:10 54° ENE
Cosmos 968 Rocket 4.4 23:27:06 43° NE 23:27:06 43° NE 23:30:37 10° NNE
Cosmos 1833 Rocket 3.4 23:29:29 47° NW 23:29:38 47° NW 23:35:07 10° NNE
SL-16 R/B 4.3 23:29:18 19° E 23:31:54 24° NE 23:36:45 10° N
Cosmos 2219 Rocket 3.9 23:33:08 10° NNW 23:37:53 27° NE 23:40:10 21° ENE
Cosmos 1607 4.1 23:48:19 67° NE 23:48:19 67° NE 23:53:43 10° NE
Cosmos 1459 Rocket 4.1 23:41:56 10° NNW 23:47:45 69° NW 23:47:45 69° NW
COSMOS 2428 4.3 23:45:29 10° NNW 23:50:31 30° NE 23:52:47 23° E
Cosmos 1727 Rocket 4.3 23:51:23 58° WNW 23:51:23 58° WNW 23:57:28 10° N
MOS 1-B Rocket 4.1 23:46:52 10° NNE 23:52:40 83° NNE 23:52:40 83° NNE
